GW5221 Weather Reports


Display with metric or nautical units.
time (UTC)temp
F
wind
direction
speed
MPH
gust
MPH
rain 1hr
in
rain 24hr
in
rain mn
in
humidity
%
barometer
mb
20260903080957 83 33 2.0 2.0 0.00 0.00 0.00 78
20260903080453 83 352 1.0 3.0 0.00 0.00 0.00 78
20260903075948 83 343 1.0 4.0 0.00 0.00 0.00 79
20260903075444 83 302 3.0 4.0 0.00 0.00 0.00 79
20260903074939 83 346 2.0 3.0 0.00 0.00 0.00 79
20260903074432 83 340 0.0 3.0 0.00 0.00 0.00 79
20260903073928 83 348 2.0 2.0 0.00 0.00 0.00 79
20260903073423 83 342 0.0 4.0 0.00 0.00 0.00 79
20260903072919 83 348 0.0 4.0 0.00 0.00 0.00 80
20260903072415 83 13 4.0 4.0 0.00 0.00 0.00 80
20260903071911 83 344 1.0 2.0 0.00 0.00 0.00 81
20260903071407 83 72 3.0 4.0 0.00 0.00 0.00 81
20260903070903 83 40 2.0 3.0 0.00 0.00 0.00 81
20260903070357 83 336 0.0 1.0 0.00 0.00 0.00 81
20260903065852 83 340 1.0 3.0 0.00 0.00 0.00 81
20260903065351 83 347 2.0 3.0 0.00 0.00 0.00 81
20260903064850 83 157 0.0 2.0 0.00 0.00 0.00 81
20260903064346 83 348 0.0 4.0 0.00 0.00 0.00 81
20260903063842 83 328 1.0 3.0 0.00 0.00 0.00 82
20260903063337 83 54 1.0 2.0 0.00 0.00 0.00 82
20260903062832 83 358 1.0 3.0 0.00 0.00 0.00 82
20260903062332 83 315 2.0 2.0 0.00 0.00 0.00 81
20260903061828 83 25 2.0 7.0 0.00 0.00 0.00 81
20260903061322 83 333 0.0 2.0 0.00 0.00 0.00 82
20260903060818 83 343 0.0 4.0 0.00 0.00 0.00 81
20260903060316 83 339 0.0 6.0 0.00 0.00 0.00 81
20260903055814 83 128 3.0 6.0 0.00 0.00 0.00 81
20260903055313 83 323 0.0 2.0 0.00 0.00 0.00 81
20260903054808 83 290 1.0 3.0 0.00 0.00 0.00 81
20260903054303 83 352 0.0 2.0 0.00 0.00 0.00 81
20260903053800 83 340 1.0 4.0 0.00 0.00 0.00 81
20260903053300 83 352 0.0 6.0 0.00 0.00 0.00 81
20260903052755 83 355 1.0 3.0 0.00 0.00 0.00 82
20260903052251 83 345 1.0 2.0 0.00 0.00 0.00 82
20260903051746 83 38 1.0 2.0 0.00 0.00 0.00 82
20260903051241 83 21 1.0 2.0 0.00 0.00 0.00 82
20260903050737 83 328 1.0 4.0 0.00 0.00 0.00 82
20260903050236 83 326 1.0 6.0 0.00 0.00 0.00 82
20260903045731 83 45 1.0 4.0 0.00 0.00 0.00 82
20260903045227 83 359 1.0 3.0 0.00 0.00 0.00 82
20260903044723 83 18 1.0 3.0 0.00 0.00 0.00 82
20260903044218 83 340 2.0 3.0 0.00 0.00 0.00 81
20260903043715 83 5 1.0 2.0 0.00 0.00 0.00 81
20260903043214 83 344 1.0 2.0 0.00 0.00 0.00 81
20260903042714 83 312 2.0 3.0 0.00 0.00 0.00 81
20260903042208 83 52 2.0 2.0 0.00 0.00 0.00 81
20260903041705 83 46 0.0 2.0 0.00 0.00 0.00 80
20260903041201 83 336 2.0 4.0 0.00 0.00 0.00 80
20260903040700 83 356 0.0 2.0 0.00 0.00 0.00 80
20260903040155 83 53 1.0 2.0 0.00 0.00 0.00 80
20260903035652 83 169 2.0 3.0 0.00 0.00 0.00 80
20260903035148 83 230 1.0 3.0 0.00 0.00 0.00 80
20260903034647 83 303 0.0 3.0 0.00 0.00 0.00 80
20260903034142 83 340 1.0 4.0 0.00 0.00 0.00 80
20260903033638 83 40 2.0 6.0 0.00 0.00 0.00 80
20260903033137 83 60 4.0 7.0 0.00 0.00 0.00 81
20260903032633 83 27 2.0 3.0 0.00 0.00 0.00 81
20260903032128 84 332 1.0 2.0 0.00 0.00 0.00 81
20260903031618 84 348 0.0 2.0 0.00 0.00 0.00 81
20260903031113 84 357 0.0 1.0 0.00 0.00 0.00 81
20260903030609 84 317 1.0 6.0 0.00 0.00 0.00 81
20260903030104 84 353 1.0 8.0 0.00 0.00 0.00 81
20260903025605 84 338 1.0 8.0 0.00 0.00 0.00 81
20260903025100 84 350 2.0 4.0 0.00 0.00 0.00 81
20260903024555 84 355 1.0 2.0 0.00 0.00 0.00 81
20260903024055 84 333 3.0 4.0 0.00 0.00 0.00 81
20260903023550 84 350 1.0 7.0 0.00 0.00 0.00 81
20260903023046 84 358 0.0 2.0 0.00 0.00 0.00 81
20260903022545 84 354 2.0 4.0 0.00 0.00 0.00 81
20260903022044 84 358 1.0 4.0 0.00 0.00 0.00 81
20260903021539 84 36 4.0 7.0 0.00 0.00 0.00 81
20260903021033 84 54 2.0 2.0 0.00 0.00 0.00 81
20260903020529 84 319 1.0 3.0 0.00 0.00 0.00 80
20260903020023 84 34 0.0 4.0 0.00 0.00 0.00 80
20260903015519 84 47 3.0 3.0 0.00 0.00 0.00 80
20260903015014 84 232 2.0 4.0 0.00 0.00 0.00 80
20260903014514 84 339 0.0 7.0 0.00 0.00 0.00 80
20260903014009 84 16 0.0 6.0 0.00 0.00 0.00 79
20260903013508 84 12 1.0 3.0 0.00 0.00 0.00 79
20260903013008 84 314 1.0 3.0 0.00 0.00 0.00 79
20260903012507 84 12 2.0 4.0 0.00 0.00 0.00 78
20260903012006 84 22 2.0 4.0 0.00 0.00 0.00 78
20260903011501 84 318 1.0 2.0 0.00 0.00 0.00 78
20260903010957 84 23 4.0 7.0 0.00 0.00 0.00 77
20260903010457 84 337 3.0 4.0 0.00 0.00 0.00 77
20260903005954 84 313 2.0 6.0 0.00 0.00 0.00 77
20260903005450 84 357 0.0 3.0 0.00 0.00 0.00 77
20260903004947 84 16 1.0 7.0 0.00 0.00 0.00 76
20260903004446 84 357 2.0 2.0 0.00 0.00 0.00 76
20260903003942 84 25 1.0 2.0 0.00 0.00 0.00 76
20260903003436 84 340 1.0 7.0 0.00 0.00 0.00 76
20260903002931 85 143 4.0 4.0 0.00 0.00 0.00 76
20260903002426 85 10 2.0 4.0 0.00 0.00 0.00 76
20260903001926 85 13 1.0 2.0 0.00 0.00 0.00 75
20260903001426 85 307 1.0 2.0 0.00 0.00 0.00 75
20260903000926 85 319 0.0 3.0 0.00 0.00 0.00 75
20260903000421 85 3 1.0 3.0 0.00 0.00 0.00 76
20260902235919 85 323 0.0 3.0 0.00 0.00 0.00 76
20260902235415 85 23 2.0 4.0 0.00 0.00 0.00 75
20260902234914 85 349 2.0 8.0 0.00 0.00 0.00 75
20260902234409 85 330 3.0 6.0 0.00 0.00 0.00 75
20260902233909 85 38 2.0 3.0 0.00 0.00 0.00 75
20260902233403 85 2 2.0 8.0 0.00 0.00 0.00 75
20260902232901 85 83 4.0 6.0 0.00 0.00 0.00 75
20260902232357 85 358 0.0 3.0 0.00 0.00 0.00 75
20260902231856 85 332 1.0 3.0 0.00 0.00 0.00 75
20260902231351 85 15 1.0 6.0 0.00 0.00 0.00 75
20260902230846 85 19 5.0 7.0 0.00 0.00 0.00 75
20260902230346 85 79 1.0 3.0 0.00 0.00 0.00 75
20260902225845 86 347 0.0 6.0 0.00 0.00 0.00 75
20260902225341 85 56 2.0 7.0 0.00 0.00 0.00 75
20260902224839 85 101 2.0 4.0 0.00 0.00 0.00 76
20260902224334 86 24 3.0 6.0 0.00 0.00 0.00 76
20260902223832 86 334 1.0 3.0 0.00 0.00 0.00 76
20260902223331 86 357 1.0 3.0 0.00 0.00 0.00 75
20260902222831 86 116 3.0 6.0 0.00 0.00 0.00 75
20260902222330 86 331 1.0 4.0 0.00 0.00 0.00 75
20260902221824 87 2 2.0 4.0 0.00 0.00 0.00 74
20260902221323 87 321 2.0 6.0 0.00 0.00 0.00 73
20260902220819 87 247 3.0 7.0 0.00 0.00 0.00 73
20260902220319 87 316 2.0 8.0 0.00 0.00 0.00 72
20260902215815 87 37 3.0 8.0 0.00 0.00 0.00 72
20260902215314 88 351 0.0 4.0 0.00 0.00 0.00 71
20260902214811 88 353 1.0 4.0 0.00 0.00 0.00 70
20260902214309 88 290 1.0 3.0 0.00 0.00 0.00 70
20260902213805 88 338 0.0 6.0 0.00 0.00 0.00 69
20260902213300 88 64 1.0 4.0 0.00 0.00 0.00 69
20260902212759 88 359 3.0 8.0 0.00 0.00 0.00 68
20260902212256 89 259 2.0 10.0 0.00 0.00 0.00 68
20260902211752 89 149 1.0 4.0 0.00 0.00 0.00 67
20260902211248 89 45 2.0 7.0 0.00 0.00 0.00 67
20260902210747 89 300 2.0 7.0 0.00 0.00 0.00 68
20260902210242 89 331 3.0 4.0 0.00 0.00 0.00 70
20260902205740 89 323 4.0 10.0 0.00 0.00 0.00 69
20260902205236 89 308 2.0 9.0 0.00 0.00 0.00 70
20260902204731 89 270 2.0 6.0 0.00 0.00 0.00 69
20260902204226 89 100 4.0 7.0 0.00 0.00 0.00 70
20260902203721 89 36 3.0 8.0 0.00 0.00 0.00 68
20260902203221 89 8 0.0 4.0 0.00 0.00 0.00 70
20260902202716 89 57 2.0 7.0 0.00 0.00 0.00 69
20260902202213 90 6 2.0 11.0 0.00 0.00 0.00 69
20260902201709 90 251 1.0 3.0 0.00 0.00 0.00 67
20260902201208 90 302 2.0 8.0 0.00 0.00 0.00 68
20260902200703 90 201 3.0 7.0 0.00 0.00 0.00 67
20260902200159 91 356 1.0 3.0 0.00 0.00 0.00 66
20260902195654 91 346 2.0 8.0 0.00 0.00 0.00 66
20260902195154 91 254 3.0 6.0 0.00 0.00 0.00 66
20260902194653 91 204 2.0 6.0 0.00 0.00 0.00 66
20260902194148 91 88 2.0 6.0 0.00 0.00 0.00 66
20260902193644 90 332 4.0 8.0 0.00 0.00 0.00 67
20260902193144 91 31 2.0 4.0 0.00 0.00 0.00 66
20260902192642 91 73 4.0 7.0 0.00 0.00 0.00 65
20260902192136 92 24 2.0 6.0 0.00 0.00 0.00 65
20260902191632 92 331 2.0 6.0 0.00 0.00 0.00 64
20260902191131 91 295 2.0 6.0 0.00 0.00 0.00 65
20260902190627 91 101 1.0 9.0 0.00 0.00 0.00 66
20260902190122 91 349 4.0 6.0 0.00 0.00 0.00 66
20260902185617 91 96 3.0 6.0 0.00 0.00 0.00 66
20260902185113 90 28 2.0 3.0 0.00 0.00 0.00 68
20260902184608 91 43 4.0 8.0 0.00 0.00 0.00 66
20260902184103 91 25 0.0 7.0 0.00 0.00 0.00 67
20260902183600 92 315 1.0 6.0 0.00 0.00 0.00 65
20260902183056 91 242 1.0 4.0 0.00 0.00 0.00 65
20260902182552 90 48 2.0 4.0 0.00 0.00 0.00 66
20260902182048 90 27 2.0 8.0 0.00 0.00 0.00 67
20260902181544 90 287 2.0 9.0 0.00 0.00 0.00 67
20260902181043 91 37 2.0 7.0 0.00 0.00 0.00 66
20260902180538 91 64 2.0 6.0 0.00 0.00 0.00 66
20260902180034 92 324 4.0 7.0 0.00 0.00 0.00 65
20260902175534 92 123 2.0 7.0 0.00 0.00 0.00 64
20260902175030 92 138 2.0 3.0 0.00 0.00 0.00 64
20260902174526 92 276 3.0 6.0 0.00 0.00 0.00 64
20260902174021 91 145 2.0 6.0 0.00 0.00 0.00 64
20260902173521 92 22 4.0 8.0 0.00 0.00 0.00 64
20260902173021 93 6 1.0 10.0 0.00 0.00 0.00 62
20260902172520 93 312 2.0 4.0 0.00 0.00 0.00 63
20260902172016 93 225 4.0 9.0 0.00 0.00 0.00 63
20260902171511 93 345 5.0 9.0 0.00 0.00 0.00 62
20260902171008 93 349 4.0 8.0 0.00 0.00 0.00 62
20260902170502 93 66 1.0 6.0 0.00 0.00 0.00 62
20260902165957 93 321 2.0 8.0 0.00 0.00 0.00 63
20260902165457 93 16 3.0 6.0 0.00 0.00 0.00 62
20260902164951 93 205 3.0 4.0 0.00 0.00 0.00 62
20260902164447 93 129 4.0 8.0 0.00 0.00 0.00 62
20260902163946 92 32 5.0 10.0 0.00 0.00 0.00 63
20260902163441 93 31 2.0 4.0 0.00 0.00 0.00 64
20260902162939 93 0 1.0 6.0 0.00 0.00 0.00 63
20260902162435 93 109 4.0 10.0 0.00 0.00 0.00 62
20260902161934 92 174 2.0 9.0 0.00 0.00 0.00 64
20260902161430 92 175 4.0 8.0 0.00 0.00 0.00 64
20260902160926 92 31 1.0 4.0 0.00 0.00 0.00 64
20260902160421 92 75 2.0 4.0 0.00 0.00 0.00 63
20260902155919 93 84 2.0 3.0 0.00 0.00 0.00 62
20260902155414 93 0 2.0 4.0 0.00 0.00 0.00 63
20260902154908 92 9 4.0 6.0 0.00 0.00 0.00 63
20260902154404 92 264 3.0 8.0 0.00 0.00 0.00 63
20260902153903 93 83 3.0 8.0 0.00 0.00 0.00 63
20260902153402 93 353 4.0 7.0 0.00 0.00 0.00 62
20260902152858 92 287 2.0 4.0 0.00 0.00 0.00 63
20260902152354 92 81 2.0 10.0 0.00 0.00 0.00 65
20260902151849 92 335 2.0 6.0 0.00 0.00 0.00 65
20260902151344 92 285 2.0 7.0 0.00 0.00 0.00 65
20260902150838 92 358 2.0 8.0 0.00 0.00 0.00 64
20260902150335 91 50 5.0 8.0 0.00 0.00 0.00 65
20260902145834 91 144 5.0 8.0 0.00 0.00 0.00 66
20260902145330 90 348 2.0 6.0 0.00 0.00 0.00 67
20260902144825 91 208 2.0 3.0 0.00 0.00 0.00 66
20260902144321 91 333 2.0 7.0 0.00 0.00 0.00 65
20260902143815 92 351 1.0 7.0 0.00 0.00 0.00 64
20260902143310 92 35 4.0 9.0 0.00 0.00 0.00 64
20260902142807 91 273 2.0 9.0 0.00 0.00 0.00 66
20260902142306 91 51 4.0 7.0 0.00 0.00 0.00 66
20260902141802 91 34 3.0 10.0 0.00 0.00 0.00 64
20260902141258 90 51 4.0 9.0 0.00 0.00 0.00 66
20260902140758 91 354 4.0 7.0 0.00 0.00 0.00 66
20260902140253 90 334 2.0 8.0 0.00 0.00 0.00 68
20260902135752 90 307 2.0 6.0 0.00 0.00 0.00 68
20260902135248 90 86 2.0 8.0 0.00 0.00 0.00 68
20260902134747 90 204 3.0 4.0 0.00 0.00 0.00 69
20260902134243 90 40 2.0 10.0 0.00 0.00 0.00 68
20260902133739 90 136 2.0 4.0 0.00 0.00 0.00 69
20260902133238 89 335 2.0 3.0 0.00 0.00 0.00 70
20260902132733 89 194 2.0 7.0 0.00 0.00 0.00 71
20260902132229 89 32 2.0 7.0 0.00 0.00 0.00 70
20260902131724 89 124 2.0 4.0 0.00 0.00 0.00 71
20260902131220 89 52 2.0 8.0 0.00 0.00 0.00 72
20260902130720 89 45 5.0 8.0 0.00 0.00 0.00 71
20260902130216 88 6 1.0 3.0 0.00 0.00 0.00 72
20260902125711 88 29 2.0 7.0 0.00 0.00 0.00 72
20260902125208 88 30 3.0 9.0 0.00 0.00 0.00 72
20260902124703 88 103 3.0 6.0 0.00 0.00 0.00 72
20260902124203 88 300 3.0 7.0 0.00 0.00 0.00 73
20260902123659 87 343 1.0 6.0 0.00 0.00 0.00 74
20260902123154 87 244 4.0 8.0 0.00 0.00 0.00 74
20260902122648 87 357 2.0 4.0 0.00 0.00 0.00 74
20260902122144 86 351 0.0 4.0 0.00 0.00 0.00 76
20260902121638 86 80 2.0 7.0 0.00 0.00 0.00 76
20260902121133 86 185 2.0 3.0 0.00 0.00 0.00 76
20260902120629 86 319 2.0 6.0 0.00 0.00 0.00 75
20260902120126 86 355 1.0 3.0 0.00 0.00 0.00 76
20260902115620 86 1 3.0 7.0 0.00 0.00 0.00 76
20260902115116 85 44 2.0 6.0 0.00 0.00 0.00 77
20260902114612 85 145 1.0 4.0 0.00 0.00 0.00 78
20260902114111 85 337 1.0 4.0 0.00 0.00 0.00 79
20260902113607 85 24 5.0 7.0 0.00 0.00 0.00 79
20260902113102 84 270 1.0 3.0 0.00 0.00 0.00 79
20260902112557 84 339 1.0 4.0 0.00 0.00 0.00 80
20260902112054 84 339 0.0 3.0 0.00 0.00 0.00 80
20260902111550 84 339 0.0 3.0 0.00 0.00 0.00 80
20260902111045 84 333 4.0 6.0 0.00 0.00 0.00 81
20260902110541 84 359 1.0 2.0 0.00 0.00 0.00 81
20260902110037 84 268 1.0 3.0 0.00 0.00 0.00 81
20260902105532 83 337 0.0 1.0 0.00 0.00 0.00 81
20260902105031 83 18 2.0 4.0 0.00 0.00 0.00 81
20260902104527 83 341 1.0 3.0 0.00 0.00 0.00 81
20260902104021 83 188 2.0 3.0 0.00 0.00 0.00 81
20260902103517 83 357 1.0 3.0 0.00 0.00 0.00 81
20260902103012 83 320 2.0 4.0 0.00 0.00 0.00 81
20260902102508 83 109 0.0 2.0 0.00 0.00 0.00 80
20260902102005 83 112 2.0 4.0 0.00 0.00 0.00 80
20260902101506 83 230 1.0 2.0 0.00 0.00 0.00 80
20260902101004 83 330 0.0 4.0 0.00 0.00 0.00 80
20260902100500 83 333 2.0 3.0 0.00 0.00 0.00 80
20260902095959 83 355 1.0 4.0 0.00 0.00 0.00 80
20260902095454 83 342 2.0 7.0 0.00 0.00 0.00 80
20260902094953 83 344 2.0 3.0 0.00 0.00 0.00 80
20260902094449 83 339 2.0 2.0 0.00 0.00 0.00 80
20260902093950 83 341 1.0 2.0 0.00 0.00 0.00 81
20260902093445 83 68 3.0 4.0 0.00 0.00 0.00 81
20260902092944 83 56 0.0 4.0 0.00 0.00 0.00 81
20260902092440 83 341 1.0 2.0 0.00 0.00 0.00 81
20260902091939 83 9 1.0 3.0 0.00 0.00 0.00 81
20260902091435 83 351 2.0 3.0 0.00 0.00 0.00 81
20260902090931 83 350 0.0 3.0 0.00 0.00 0.00 81
20260902090431 83 40 2.0 4.0 0.00 0.00 0.00 80
20260902085930 83 91 1.0 6.0 0.00 0.00 0.00 80
20260902085425 83 249 1.0 3.0 0.00 0.00 0.00 80
20260902084920 83 29 2.0 6.0 0.00 0.00 0.00 80
20260902084417 83 321 1.0 7.0 0.00 0.00 0.00 81
20260902083907 83 149 1.0 3.0 0.00 0.00 0.00 81
20260902083406 83 16 1.0 3.0 0.00 0.00 0.00 81
20260902082901 83 344 1.0 7.0 0.00 0.00 0.00 81
20260902082357 83 340 0.0 2.0 0.00 0.00 0.00 81
20260902081854 84 288 1.0 4.0 0.00 0.00 0.00 81
20260902081349 83 328 2.0 4.0 0.00 0.00 0.00 81